Location: Mentone
(34.5413°N, 85.5351°W)
Time: 20:43:20
(UTC-05:00)

Vanguard 1 - Visible Passes

Search period start: 21 April 2015 00:00
Search period end: 01 May 2015 00:00
Orbit: 652 x 3833 km, 34.2° (Epoch: 19 April)

Date Brightness Start Highest point End Pass type
(mag) Time Alt. Az. Time Alt. Az. Time Alt. Az.
21 Apr 13.9 03:59:56 10° S 04:12:05 19° SE 04:23:27 10° ESE visible
22 Apr 13.7 04:18:18 10° S 04:34:04 26° SE 04:47:02 10° E visible
23 Apr 13.5 04:37:43 10° SSW 04:55:57 33° SSE 05:09:39 10° E visible
24 Apr 14.0 02:42:36 10° SSE 02:51:46 15° SE 03:02:30 10° ESE visible
24 Apr 13.2 04:57:49 10° SSW 05:17:46 42° SSE 05:31:45 10° E visible
25 Apr 13.8 03:01:25 12° S 03:13:44 22° SE 03:27:38 10° E visible
25 Apr 13.1 05:18:26 10° SW 05:39:33 51° SSE 05:53:32 10° E visible
26 Apr 13.6 03:21:37 15° S 03:35:36 29° SE 03:51:01 10° E visible
27 Apr 13.4 03:41:45 17° SSW 03:57:22 37° SE 04:13:34 10° E visible
28 Apr 13.9 01:49:03 15° SSE 01:53:12 16° SE 02:05:56 10° ESE visible
28 Apr 13.2 04:01:47 17° SSW 04:19:07 46° SSE 04:35:41 10° E visible
29 Apr 13.7 02:09:01 20° SSE 02:14:57 23° SE 02:30:46 10° E visible
29 Apr 13.1 04:21:45 16° SW 04:40:52 54° SSE 04:57:30 10° E visible
30 Apr 13.5 02:28:54 25° SSE 02:36:36 31° SE 02:54:07 10° E visible
30 Apr 12.9 04:41:37 14° SW 05:02:37 63° SSE 05:19:08 10° ENE visible
